N510MV KCYS-KSUX

Flight info

Callsign N510MV
Flight time N/A
Altitude FL330
Route CYS J148 ONL DCT
Aircraft C510/L-VGDW/C

Departure

Time N/A
Airport Cheyenne Regional Jerry Olson Field (KCYS)

Arrival

Time 2026-04-29 11:29
Airport Sioux Gateway Airport / Brigadier General Bud Day Field (KSUX)
Time Latitude Longitude Altitude Speed Heading
2026-04-29 10:59 42.43306 -98.28310 29515 ft 346 kts 99°
2026-04-29 11:00 42.42955 -98.25181 29017 ft 343 kts 99°
2026-04-29 11:00 42.42605 -98.22070 28515 ft 339 kts 98°
2026-04-29 11:00 42.42262 -98.18985 28012 ft 336 kts 99°
2026-04-29 11:00 42.41920 -98.15944 27514 ft 333 kts 98°
2026-04-29 11:01 42.41577 -98.12912 27022 ft 330 kts 98°
2026-04-29 11:01 42.41237 -98.09911 26546 ft 326 kts 98°
2026-04-29 11:01 42.40903 -98.06944 26077 ft 323 kts 98°
2026-04-29 11:01 42.40566 -98.03984 25603 ft 320 kts 97°
2026-04-29 11:02 42.40237 -98.01072 25144 ft 317 kts 98°
2026-04-29 11:02 42.39906 -97.98162 24689 ft 315 kts 98°
2026-04-29 11:02 42.39579 -97.95307 24243 ft 313 kts 97°
2026-04-29 11:02 42.39255 -97.92450 23796 ft 311 kts 98°
2026-04-29 11:03 42.38932 -97.89627 23369 ft 309 kts 98°
2026-04-29 11:03 42.38605 -97.86802 22942 ft 307 kts 97°
2026-04-29 11:03 42.38280 -97.83986 22509 ft 305 kts 97°
2026-04-29 11:03 42.37957 -97.81190 22076 ft 304 kts 97°
2026-04-29 11:04 42.37637 -97.78423 21648 ft 302 kts 97°
2026-04-29 11:04 42.37317 -97.75665 21219 ft 299 kts 97°
2026-04-29 11:04 42.36998 -97.72926 20788 ft 297 kts 97°
2026-04-29 11:04 42.36682 -97.70197 20348 ft 295 kts 97°
2026-04-29 11:05 42.36366 -97.67494 19955 ft 291 kts 97°
2026-04-29 11:05 42.36054 -97.64826 19679 ft 290 kts 97°
2026-04-29 11:05 42.35742 -97.62159 19389 ft 289 kts 97°
2026-04-29 11:05 42.35430 -97.59500 19091 ft 287 kts 97°
2026-04-29 11:06 42.35121 -97.56871 18790 ft 286 kts 97°
2026-04-29 11:06 42.34809 -97.54233 18489 ft 286 kts 97°
2026-04-29 11:06 42.34498 -97.51629 18186 ft 286 kts 96°
2026-04-29 11:06 42.34192 -97.49016 17884 ft 284 kts 96°
2026-04-29 11:07 42.33881 -97.46418 17584 ft 280 kts 96°
2026-04-29 11:07 42.33577 -97.43863 17288 ft 276 kts 96°
2026-04-29 11:07 42.33276 -97.41342 17000 ft 272 kts 96°
2026-04-29 11:07 42.32983 -97.38870 16721 ft 269 kts 96°
2026-04-29 11:08 42.32691 -97.36437 16448 ft 265 kts 96°
2026-04-29 11:08 42.32402 -97.34027 16167 ft 262 kts 96°
2026-04-29 11:08 42.32118 -97.31630 15888 ft 260 kts 96°
2026-04-29 11:08 42.31830 -97.29256 15616 ft 257 kts 96°
2026-04-29 11:09 42.31557 -97.27000 15355 ft 254 kts 96°
2026-04-29 11:09 42.31302 -97.24886 15112 ft 252 kts 96°
2026-04-29 11:09 42.31049 -97.22796 14873 ft 249 kts 95°
2026-04-29 11:09 42.30799 -97.20723 14639 ft 247 kts 95°
2026-04-29 11:10 42.30527 -97.18475 14381 ft 245 kts 95°
2026-04-29 11:10 42.30254 -97.16227 14128 ft 243 kts 95°
2026-04-29 11:10 42.29987 -97.14038 13878 ft 241 kts 95°
2026-04-29 11:10 42.29741 -97.12023 13641 ft 240 kts 94°
2026-04-29 11:11 42.29484 -97.09894 13395 ft 238 kts 95°
2026-04-29 11:11 42.29219 -97.07713 13149 ft 236 kts 95°
2026-04-29 11:11 42.28956 -97.05546 12903 ft 235 kts 95°
2026-04-29 11:11 42.28692 -97.03417 12649 ft 233 kts 95°
2026-04-29 11:12 42.28432 -97.01289 12397 ft 232 kts 95°
2026-04-29 11:12 42.28171 -96.99167 12147 ft 230 kts 95°
2026-04-29 11:12 42.27911 -96.97065 11901 ft 228 kts 95°
2026-04-29 11:12 42.27652 -96.94969 11656 ft 226 kts 94°
2026-04-29 11:13 42.27396 -96.92896 11411 ft 224 kts 94°
2026-04-29 11:13 42.27143 -96.90840 11168 ft 223 kts 95°
2026-04-29 11:13 42.26889 -96.88806 10923 ft 221 kts 94°
2026-04-29 11:13 42.26638 -96.86780 10682 ft 219 kts 94°
2026-04-29 11:14 42.26388 -96.84754 10441 ft 220 kts 94°
2026-04-29 11:14 42.26136 -96.82734 10285 ft 217 kts 94°
2026-04-29 11:14 42.25889 -96.80755 10102 ft 215 kts 94°
2026-04-29 11:14 42.25641 -96.78780 9909 ft 214 kts 94°
2026-04-29 11:15 42.25396 -96.76822 9708 ft 213 kts 94°
2026-04-29 11:15 42.25152 -96.74858 9500 ft 213 kts 94°
2026-04-29 11:15 42.24905 -96.72898 9285 ft 214 kts 94°
2026-04-29 11:15 42.24659 -96.70928 9051 ft 214 kts 94°
2026-04-29 11:16 42.24411 -96.68962 8824 ft 214 kts 94°
2026-04-29 11:16 42.24161 -96.66963 8593 ft 221 kts 94°
2026-04-29 11:16 42.23900 -96.64885 8348 ft 231 kts 94°
2026-04-29 11:16 42.23629 -96.62744 8086 ft 233 kts 94°
2026-04-29 11:17 42.23359 -96.60623 7821 ft 232 kts 94°
2026-04-29 11:17 42.23087 -96.58500 7561 ft 230 kts 94°
2026-04-29 11:17 42.22820 -96.56381 7309 ft 230 kts 94°
2026-04-29 11:17 42.22550 -96.54262 7045 ft 230 kts 93°
2026-04-29 11:18 42.22282 -96.52159 6789 ft 228 kts 94°
2026-04-29 11:18 42.22017 -96.50076 6536 ft 225 kts 93°
2026-04-29 11:18 42.21754 -96.48016 6286 ft 223 kts 94°
2026-04-29 11:18 42.21496 -96.45979 6042 ft 221 kts 94°
2026-04-29 11:19 42.21235 -96.43960 5806 ft 219 kts 94°
2026-04-29 11:19 42.20979 -96.41942 5562 ft 217 kts 93°
2026-04-29 11:19 42.20729 -96.39954 5323 ft 215 kts 93°
2026-04-29 11:19 42.20476 -96.37978 5090 ft 213 kts 93°
2026-04-29 11:20 42.20223 -96.36022 4858 ft 212 kts 94°
2026-04-29 11:20 42.19976 -96.34098 4625 ft 205 kts 94°
2026-04-29 11:20 42.19734 -96.32239 4396 ft 199 kts 94°
2026-04-29 11:20 42.19500 -96.30438 4186 ft 194 kts 95°
2026-04-29 11:21 42.19280 -96.28737 3989 ft 190 kts 94°
2026-04-29 11:21 42.19170 -96.27167 3917 ft 176 kts 73°
2026-04-29 11:21 42.19664 -96.25917 3934 ft 165 kts 43°
2026-04-29 11:21 42.20405 -96.24834 3922 ft 168 kts 41°
2026-04-29 11:22 42.21179 -96.23712 3908 ft 159 kts 41°
2026-04-29 11:22 42.21942 -96.22638 3912 ft 159 kts 40°
2026-04-29 11:22 42.22670 -96.21625 3911 ft 159 kts 40°
2026-04-29 11:22 42.23377 -96.20646 3913 ft 159 kts 40°
2026-04-29 11:23 42.24202 -96.19679 3911 ft 155 kts 20°
2026-04-29 11:23 42.25223 -96.19688 3929 ft 152 kts 336°
2026-04-29 11:23 42.26090 -96.20534 3926 ft 157 kts 322°
2026-04-29 11:23 42.26915 -96.21486 3916 ft 157 kts 320°
2026-04-29 11:24 42.27715 -96.22476 3912 ft 155 kts 319°
2026-04-29 11:24 42.28474 -96.23445 3960 ft 149 kts 319°
2026-04-29 11:24 42.29192 -96.24379 3823 ft 136 kts 319°
2026-04-29 11:24 42.29852 -96.25242 3656 ft 130 kts 319°
2026-04-29 11:25 42.30494 -96.26081 3500 ft 128 kts 319°
2026-04-29 11:25 42.31125 -96.26907 3340 ft 124 kts 319°
2026-04-29 11:25 42.31730 -96.27700 3171 ft 118 kts 319°
2026-04-29 11:25 42.32296 -96.28440 3004 ft 111 kts 319°
2026-04-29 11:26 42.33395 -96.29913 2742 ft 112 kts 317°
2026-04-29 11:26 42.33955 -96.30647 2586 ft 114 kts 317°
2026-04-29 11:26 42.34515 -96.31379 2430 ft 116 kts 316°
2026-04-29 11:27 42.35083 -96.32123 2255 ft 110 kts 316°
2026-04-29 11:27 42.35608 -96.32839 2075 ft 107 kts 312°
2026-04-29 11:27 42.36130 -96.33534 1938 ft 107 kts 317°
2026-04-29 11:27 42.36684 -96.34195 1800 ft 108 kts 316°
2026-04-29 11:28 42.37230 -96.34886 1673 ft 109 kts 314°
2026-04-29 11:28 42.37762 -96.35604 1524 ft 109 kts 314°
2026-04-29 11:28 42.38298 -96.36302 1391 ft 106 kts 317°
2026-04-29 11:28 42.38814 -96.36999 1239 ft 107 kts 315°
2026-04-29 11:29 42.39342 -96.37698 1103 ft 103 kts 315°
2026-04-29 11:29 42.39748 -96.38230 1106 ft 61 kts 319°
2026-04-29 11:29 42.39941 -96.38486 1103 ft 23 kts 316°
2026-04-29 11:29 42.40022 -96.38574 1103 ft 5 kts
2026-04-29 11:30 42.40032 -96.38572 1103 ft 10 kts 21°
2026-04-29 11:30 42.40083 -96.38507 1102 ft 0 kts 45°
2026-04-29 11:30 42.40089 -96.38499 1102 ft 5 kts 45°
2026-04-29 11:30 42.40130 -96.38402 1098 ft 17 kts 68°
2026-04-29 11:31 42.40147 -96.38232 1092 ft 18 kts 90°
2026-04-29 11:31 42.40147 -96.38106 1093 ft 7 kts 90°
2026-04-29 11:31 42.40147 -96.38052 1093 ft 7 kts 89°
2026-04-29 11:31 42.40187 -96.38013 1091 ft 8 kts
2026-04-29 11:32 42.40258 -96.38013 1093 ft 14 kts
2026-04-29 11:32 42.40379 -96.38011 1100 ft 19 kts 355°
2026-04-29 11:32 42.40465 -96.38011 1103 ft 2 kts
2026-04-29 11:32 42.40500 -96.38006 1104 ft 9 kts 25°
2026-04-29 11:33 42.40512 -96.37956 1106 ft 4 kts 96°
2026-04-29 11:33 42.40502 -96.37934 1107 ft 4 kts 169°
2026-04-29 11:33 42.40493 -96.37933 1106 ft 0 kts 175°